Starlink 1276

operational
NORAD ID: 45368 Int'l Des: 2020-019 Owner: SPXS Country: US Constellation: starlink
LEOCIRCULARSTARLINK_TYPE

About Starlink 1276

Description loading...

Live Position

Loading 3D Globe...

Upcoming Passes

Altitude History

Altitude vs Time

uPlot chart will show altitude changes over time

Two-Line Element Set

1 45368U 20019J 25350.81738924 .00000920 00000-0 80639-4 0 9996
2 45368 53.0533 178.6475 0001283 91.1451 268.9684 15.06391362317246
Epoch: Dec 16, 2025 • Age: 13 hours

Current Status

Altitude 548.4 km
Velocity 7.59 km/s
Sub-Earth Point 30.15°N, 109.46°E
Launch Date Mar 18, 2020
Age 5.7 years
Type internet

Technical Details

Classification Payload
Mass 260.00 kg
Dry Mass 248.00 kg
Total Mass 260.00 kg
Length 0.20 m
Diameter 2.80 m
Span 9.00 m
Shape Box + pan
Manufacturer SPXS
Bus Type Starlink
Phase Status In Orbit
Owner/State SPXS/US

Large Constellations

Loading constellations...